Buffalo, NY

2:49 AM EST on December 16, 2019 (GMT -0500)
Buffalo Niagara International

Weather History for KBUF - August, 2019

Change the Weather History Date:

Wednesday, August 21, 2019

  Actual Average Record
Temperature  
Mean Temperature 74 °F 69 °F  
Max Temperature 81 °F 78 °F 88 °F (1901)
Min Temperature 66 °F 60 °F 45 °F (1950)
Degree Days  
Heating Degree Days 0 1  
Month to date heating degree days 0 6  
Since 1 June heating degree days 62 79  
Since 1 July heating degree days 0 15  
Cooling Degree Days 9 5  
Month to date cooling degree days 152 119  
Year to date cooling degree days 520 445  
Since 1 June cooling degree days 512 419  
Growing Degree Days 24 (Base 50)    
Moisture  
Dew Point 67 °F    
Average Humidity 78    
Maximum Humidity 93    
Minimum Humidity 62    
Precipitation  
Precipitation 0.74 in 0.11 in 1.86 in (1885)
Month to date precipitation 3.38 2.24  
Year to date precipitation 28.13 24.14  
Snow  
Snow 0.00 in 0.00 in 0.00 in ()
Month to date snowfall 0.0 0.0  
Since 1 June snowfall 0.0 0.0  
Since 1 July snowfall 0.0 0.0  
Snow Depth 0.00 in    
Sea Level Pressure  
Sea Level Pressure 29.89 in    
Wind  
Wind Speed 12 mph (WSW)    
Max Wind Speed 23 mph    
Max Gust Speed 28 mph    
Visibility 8 miles    
Events Rain , Thunderstorm    
T = Trace of Precipitation, MM = Missing Value Source: NWS Daily Summary

Daily Weather History Graph

Daily Weather History Graph

Search for Another Location

Airport or City:

Astronomy

Aug. 21, 2019 Rise Set
Actual Time 6:27 AM EDT 8:08 PM EDT
Civil Twilight 5:57 AM EDT 8:38 PM EDT
Nautical Twilight 5:20 AM EDT 9:14 PM EDT
Astronomical Twilight 4:41 AM EDT 9:53 PM EDT
Moon 11:16 PM EDT (8/21) 12:09 PM EDT (8/21)
Length of Visible Light 14h 41m
Length of Day
13h 40m
Waning Gibbous, 69% of the Moon is Illuminated
Aug 21
Waning Gibbous
Aug 23
Last Quarter
Aug 30
New
Sep 5
First Quarter
Sep 14
Full

Hourly Weather History & Observations

Time (EDT) Temp. Heat Index Dew Point Humidity Pressure Visibility Wind Dir Wind Speed Gust Speed Precip Events Conditions
12:54 AM 75.0 °F - 66.9 °F 76% 29.91 in 10.0 mi South 5.8 mph - N/A   Mostly Cloudy
1:54 AM 75.0 °F - 66.9 °F 76% 29.89 in 10.0 mi SSE 6.9 mph - N/A   Mostly Cloudy
2:54 AM 75.0 °F - 66.9 °F 76% 29.89 in 10.0 mi SSW 9.2 mph - N/A   Overcast
3:11 AM 75.9 °F - 66.9 °F 74% 29.90 in 10.0 mi SSW 15.0 mph 23.0 mph 0.00 in Rain , Thunderstorm Light Thunderstorms and Rain
3:42 AM 69.1 °F - 64.0 °F 84% 29.91 in 2.5 mi West 17.3 mph - 0.14 in Rain , Thunderstorm Heavy Thunderstorms and Rain
3:51 AM 69.8 °F - 64.4 °F 83% 29.92 in 4.0 mi WNW 18.4 mph 28.8 mph 0.21 in Rain , Thunderstorm Thunderstorms and Rain
3:54 AM 69.1 °F - 64.9 °F 87% 29.91 in 6.0 mi WNW 21.9 mph 28.8 mph 0.22 in Rain , Thunderstorm Thunderstorms and Rain
4:01 AM 69.1 °F - 66.0 °F 90% 29.95 in 8.0 mi WNW 11.5 mph 26.5 mph 0.01 in Rain , Thunderstorm Light Thunderstorms and Rain
4:12 AM 70.0 °F - 66.9 °F 90% 29.96 in 2.5 mi West 9.2 mph - 0.04 in Rain , Thunderstorm Heavy Thunderstorms and Rain
4:34 AM 68.0 °F - 66.0 °F 93% 29.95 in 4.0 mi NNW 8.1 mph - 0.24 in Rain , Thunderstorm Thunderstorms and Rain
4:54 AM 68.0 °F - 64.9 °F 90% 29.94 in 3.0 mi Calm Calm - 0.30 in Rain Heavy Rain
5:01 AM 68.0 °F - 64.9 °F 90% 29.95 in 2.5 mi NNW 4.6 mph - 0.04 in Rain Heavy Rain
5:10 AM 68.0 °F - 64.9 °F 90% 29.94 in 3.0 mi North 5.8 mph - 0.08 in Rain Heavy Rain
5:18 AM 66.9 °F - 64.9 °F 93% 29.94 in 2.5 mi North 5.8 mph - 0.15 in Rain Heavy Rain
5:25 AM 66.9 °F - 64.9 °F 93% 29.93 in 5.0 mi NNW 8.1 mph - 0.18 in Rain Rain
5:54 AM 66.9 °F - 64.0 °F 90% 29.92 in 10.0 mi WNW 3.5 mph - 0.21 in Rain Light Rain
6:54 AM 66.9 °F - 64.0 °F 90% 29.89 in 10.0 mi South 10.4 mph - 0.01 in Rain Light Rain
7:54 AM 66.9 °F - 64.9 °F 93% 29.89 in 10.0 mi SSW 4.6 mph - 0.00 in   Mostly Cloudy
8:54 AM 69.1 °F - 66.0 °F 90% 29.89 in 10.0 mi SSW 6.9 mph - N/A   Scattered Clouds
9:54 AM 73.0 °F - 66.9 °F 81% 29.89 in 10.0 mi SW 8.1 mph - N/A   Scattered Clouds
10:54 AM 77.0 °F - 66.0 °F 69% 29.88 in 10.0 mi SW 10.4 mph - N/A   Partly Cloudy
11:54 AM 78.1 °F - 66.0 °F 66% 29.88 in 10.0 mi WSW 16.1 mph 20.7 mph N/A   Partly Cloudy
12:54 PM 78.1 °F - 66.9 °F 68% 29.89 in 10.0 mi SW 15.0 mph - N/A   Partly Cloudy
1:54 PM 79.0 °F - 68.0 °F 69% 29.88 in 10.0 mi SW 13.8 mph - N/A   Partly Cloudy
2:54 PM 80.1 °F 82.7 °F 68.0 °F 67% 29.86 in 10.0 mi SW 16.1 mph - N/A   Partly Cloudy
3:54 PM 80.1 °F 82.7 °F 68.0 °F 67% 29.85 in 10.0 mi WSW 16.1 mph 20.7 mph N/A   Partly Cloudy
4:54 PM 80.1 °F 82.3 °F 66.9 °F 64% 29.84 in 10.0 mi WSW 16.1 mph - N/A   Scattered Clouds
5:54 PM 78.1 °F - 69.1 °F 74% 29.85 in 10.0 mi SW 13.8 mph - N/A   Mostly Cloudy
6:54 PM 75.9 °F - 69.1 °F 79% 29.83 in 10.0 mi SW 16.1 mph - N/A   Scattered Clouds
7:43 PM 75.9 °F - 70.0 °F 82% 29.85 in 10.0 mi SW 17.3 mph 23.0 mph N/A   Mostly Cloudy
7:54 PM 75.0 °F - 70.0 °F 84% 29.84 in 10.0 mi SW 13.8 mph - N/A   Mostly Cloudy
8:54 PM 75.0 °F - 70.0 °F 84% 29.84 in 10.0 mi SW 10.4 mph 23.0 mph N/A   Mostly Cloudy
9:02 PM 75.0 °F - 70.0 °F 84% 29.85 in 10.0 mi SW 12.7 mph - N/A   Mostly Cloudy
9:54 PM 75.0 °F - 71.1 °F 87% 29.85 in 10.0 mi SW 11.5 mph - N/A   Overcast
10:54 PM 75.0 °F - 71.1 °F 87% 29.84 in 10.0 mi SSW 15.0 mph - N/A   Mostly Cloudy
11:54 PM 73.9 °F - 69.1 °F 85% 29.84 in 10.0 mi SSW 11.5 mph - N/A   Mostly Cloudy